,,,PA_Meas_PMT16A,,PR_Meas_QMR101_102,,RH_Meas_QMH101,,SR_Meas_QMS101,,TA_Meas_QMH101,,GenWind,,GenWind,
date,time,status,PA,status,PR,status,RH,status,SR,status,TA,status,DirAvg,status,SpdAvg,
2011-10-20, 00:00:04,VALID,1002.76,VALID,0,VALID,81.1026,VALID,0,VALID,26.7609,VALID,100,VALID,1.51328,
2011-10-20, 00:01:04,VALID,1002.7,VALID,0,VALID,81.0263,VALID,0,VALID,26.7609,VALID,118,VALID,1.73984,
2011-10-20, 00:02:04,VALID,1002.69,VALID,0,VALID,81.1865,VALID,0,VALID,26.7609,VALID,29,VALID,1.0543,
2011-10-20, 00:03:04,VALID,1002.65,VALID,0,VALID,81.3696,VALID,0,VALID,26.7219,VALID,42,VALID,0.493359,
2011-10-20, 00:04:04,VALID,1002.67,VALID,0,VALID,81.2934,VALID,0,VALID,26.7414,VALID,63,VALID,1.36602,
2011-10-20, 00:05:04,VALID,1002.65,VALID,0,VALID,81.2628,VALID,0,VALID,26.7609,VALID,94,VALID,0.891016,
2011-10-20, 00:06:04,VALID,1002.67,VALID,0,VALID,81.095,VALID,0,VALID,26.7609,VALID,77,VALID,1.73086,
2011-10-20, 00:07:04,VALID,1002.69,VALID,0,VALID,81.1255,VALID,0,VALID,26.7414,VALID,10,VALID,1.59687,
2011-10-20, 00:08:04,VALID,1002.67,VALID,0,VALID,81.2628,VALID,0,VALID,26.7394,VALID,31,VALID,0.741406,
2011-10-20, 00:09:04,VALID,1002.74,VALID,0,VALID,81.2857,VALID,0,VALID,26.7219,VALID,20,VALID,0.823047,
2011-10-20, 00:10:04,VALID,1002.74,VALID,0,VALID,81.4917,VALID,0,VALID,26.7024,VALID,18,VALID,1.77617,
2011-10-20, 00:11:04,VALID,1002.79,VALID,0,VALID,81.4841,VALID,0,VALID,26.683,VALID,87,VALID,2.36406,
2011-10-20, 00:12:04,VALID,1002.76,VALID,0,VALID,81.4993,VALID,0,VALID,26.7024,VALID,45,VALID,1.10547,
2011-10-20, 00:13:04,VALID,1002.78,VALID,0,VALID,81.4917,VALID,0,VALID,26.683,VALID,360,VALID,1.32656,
2011-10-20, 00:14:04,VALID,1002.78,VALID,0,VALID,81.4154,VALID,0,VALID,26.7219,VALID,99,VALID,0.975,
2011-10-20, 00:15:04,VALID,1002.79,VALID,0,VALID,81.2934,VALID,0,VALID,26.7609,VALID,78,VALID,1.06445,
2011-10-20, 00:16:04,VALID,1002.77,VALID,0,VALID,80.9882,VALID,0,VALID,26.7804,VALID,65,VALID,1.50469,
2011-10-20, 00:17:04,VALID,1002.78,VALID,0,VALID,80.8585,VALID,0,VALID,26.8193,VALID,60,VALID,1.03516,
2011-10-20, 00:18:04,VALID,1002.73,VALID,0,VALID,80.889,VALID,0,VALID,26.8193,VALID,68,VALID,1.2418,
2011-10-20, 00:19:04,VALID,1002.7,VALID,0,VALID,81.1103,VALID,0,VALID,26.7783,VALID,90,VALID,0.398828,
2011-10-20, 00:20:04,VALID,1002.7,VALID,0,VALID,81.2934,VALID,0,VALID,26.7824,VALID,95,VALID,0.396484,
2011-10-20, 00:21:04,VALID,1002.69,VALID,0,VALID,81.2934,VALID,0,VALID,26.7414,VALID,79,VALID,1.46563,
2011-10-20, 00:22:04,VALID,1002.68,VALID,0,VALID,81.1865,VALID,0,VALID,26.7414,VALID,102,VALID,1.87695,
2011-10-20, 00:23:04,VALID,1002.66,VALID,0,VALID,80.9272,VALID,0,VALID,26.7804,VALID,67,VALID,2.02305,
2011-10-20, 00:24:04,VALID,1002.66,VALID,0,VALID,81.0492,VALID,0,VALID,26.7998,VALID,86,VALID,1.31172,
2011-10-20, 00:25:04,VALID,1002.63,VALID,0,VALID,80.8051,VALID,0,VALID,26.8388,VALID,78,VALID,1.57422,
2011-10-20, 00:26:04,VALID,1002.63,VALID,0,VALID,80.7136,VALID,0,VALID,26.8583,VALID,80,VALID,1.86289,
2011-10-20, 00:27:04,VALID,1002.58,VALID,0,VALID,80.5915,VALID,0,VALID,26.8408,VALID,90,VALID,1.12422,
2011-10-20, 00:28:04,VALID,1002.59,VALID,0,VALID,80.8661,VALID,0,VALID,26.8193,VALID,69,VALID,1.04531,
2011-10-20, 00:29:04,VALID,1002.58,VALID,0,VALID,80.9729,VALID,0,VALID,26.7998,VALID,38,VALID,1.43281,
2011-10-20, 00:30:04,VALID,1002.56,VALID,0,VALID,80.9501,VALID,0,VALID,26.7804,VALID,98,VALID,1.62852,
2011-10-20, 00:31:04,VALID,1002.62,VALID,0,VALID,80.8966,VALID,0,VALID,26.7804,VALID,62,VALID,1.39219,
2011-10-20, 00:32:04,VALID,1002.57,VALID,0,VALID,80.9501,VALID,0,VALID,26.7804,VALID,23,VALID,0.972266,
2011-10-20, 00:33:04,VALID,1002.54,VALID,0,VALID,80.9043,VALID,0,VALID,26.7998,VALID,93,VALID,1.50469,
2011-10-20, 00:34:04,VALID,1002.57,VALID,0,VALID,80.622,VALID,0,VALID,26.8583,VALID,106,VALID,2.48828,
2011-10-20, 00:35:04,VALID,1002.57,VALID,0,VALID,80.5076,VALID,0,VALID,26.8973,VALID,52,VALID,1.23828,
2011-10-20, 00:36:04,VALID,1002.57,VALID,0,VALID,80.6754,VALID,0,VALID,26.8583,VALID,73,VALID,1.38672,
2011-10-20, 00:37:04,VALID,1002.58,VALID,0,VALID,80.8966,VALID,0,VALID,26.8193,VALID,4,VALID,1.27813,
2011-10-20, 00:38:04,VALID,1002.59,VALID,0,VALID,81.2018,VALID,0,VALID,26.7804,VALID,99,VALID,0.945703,
2011-10-20, 00:39:04,VALID,1002.54,VALID,0,VALID,81.3391,VALID,0,VALID,26.7804,VALID,88,VALID,0.710938,
2011-10-20, 00:40:04,VALID,1002.51,VALID,0,VALID,81.0187,VALID,0,VALID,26.8603,VALID,98,VALID,2.02305,
2011-10-20, 00:41:04,VALID,1002.52,VALID,0,VALID,81.1103,VALID,0,VALID,26.8583,VALID,82,VALID,1.37227,
2011-10-20, 00:42:04,VALID,1002.51,VALID,0,VALID,80.8814,VALID,0,VALID,26.8583,VALID,93,VALID,1.27383,
2011-10-20, 00:43:04,VALID,1002.49,VALID,0,VALID,80.7212,VALID,0,VALID,26.8583,VALID,62,VALID,1.56328,
2011-10-20, 00:44:04,VALID,1002.46,VALID,0,VALID,80.5762,VALID,0,VALID,26.9362,VALID,82,VALID,1.10742,
2011-10-20, 00:45:04,VALID,1002.45,VALID,0,VALID,80.5533,VALID,0,VALID,26.9752,VALID,6,VALID,1.67148,
2011-10-20, 00:46:04,VALID,1002.44,VALID,0,VALID,80.622,VALID,0,VALID,26.9557,VALID,9,VALID,0.355469,
2011-10-20, 00:47:04,VALID,1002.41,VALID,0,VALID,80.3855,VALID,0,VALID,26.9362,VALID,41,VALID,0.826563,
2011-10-20, 00:48:04,VALID,1002.42,VALID,0,VALID,80.4389,VALID,0,VALID,26.9752,VALID,36,VALID,0.920313,
2011-10-20, 00:49:04,VALID,1002.37,VALID,0,VALID,80.5686,VALID,0,VALID,26.9167,VALID,62,VALID,1.05,
2011-10-20, 00:50:04,VALID,1002.34,VALID,0,VALID,80.7364,VALID,0,VALID,26.8973,VALID,71,VALID,0.863672,
2011-10-20, 00:51:04,VALID,1002.29,VALID,0,VALID,80.8356,VALID,0,VALID,26.8388,VALID,9,VALID,1.19102,
2011-10-20, 00:52:04,VALID,1002.24,VALID,0,VALID,80.9348,VALID,0,VALID,26.8193,VALID,79,VALID,1.35078,
2011-10-20, 00:53:04,VALID,1002.24,VALID,0,VALID,81.1865,VALID,0,VALID,26.7998,VALID,53,VALID,0.683203,
2011-10-20, 00:54:04,VALID,1002.2,VALID,0,VALID,81.2705,VALID,0,VALID,26.7609,VALID,67,VALID,2.01133,
2011-10-20, 00:55:04,VALID,1002.22,VALID,0,VALID,81.1179,VALID,0,VALID,26.7824,VALID,87,VALID,1.89883,
2011-10-20, 00:56:04,VALID,1002.16,VALID,0,VALID,80.8051,VALID,0,VALID,26.8778,VALID,77,VALID,1.48516,
2011-10-20, 00:57:04,VALID,1002.14,VALID,0,VALID,80.6678,VALID,0,VALID,26.8583,VALID,18,VALID,1.97383,
2011-10-20, 00:58:04,VALID,1002.14,VALID,0,VALID,80.9119,VALID,0,VALID,26.8193,VALID,13,VALID,1.06523,
2011-10-20, 00:59:04,VALID,1002.17,VALID,0,VALID,81.3086,VALID,0,VALID,26.7998,VALID,25,VALID,0.93125,
2011-10-20, 01:00:04,VALID,1002.13,VALID,0,VALID,81.568,VALID,0,VALID,26.7219,VALID,93,VALID,0.754297,
2011-10-20, 01:01:04,VALID,1002.09,VALID,0,VALID,81.5909,VALID,0,VALID,26.683,VALID,34,VALID,1.18047,
2011-10-20, 01:02:04,VALID,1002.14,VALID,0,VALID,81.7816,VALID,0,VALID,26.7045,VALID,104,VALID,1.11602,
2011-10-20, 01:03:04,VALID,1002.17,VALID,0,VALID,81.7892,VALID,0,VALID,26.7045,VALID,41,VALID,0.952344,
2011-10-20, 01:04:04,VALID,1002.19,VALID,0,VALID,81.9113,VALID,0.0815089,VALID,26.7004,VALID,26,VALID,0.846094,
2011-10-20, 01:05:04,VALID,1002.15,VALID,0,VALID,81.629,VALID,0.0815089,VALID,26.7199,VALID,93,VALID,1.73906,
2011-10-20, 01:06:04,VALID,1002.18,VALID,0,VALID,81.8274,VALID,0.0815089,VALID,26.7394,VALID,73,VALID,0.957422,
2011-10-20, 01:07:04,VALID,1002.13,VALID,0,VALID,81.7892,VALID,0,VALID,26.7414,VALID,96,VALID,0.549219,
2011-10-20, 01:08:04,VALID,1002.11,VALID,0,VALID,82.0333,VALID,0.0815089,VALID,26.7004,VALID,68,VALID,1.0293,
2011-10-20, 01:09:04,VALID,1002.07,VALID,0,VALID,82.0333,VALID,0,VALID,26.6809,VALID,43,VALID,0.897656,
2011-10-20, 01:10:04,VALID,1002.05,VALID,0,VALID,81.8579,VALID,0.0815089,VALID,26.7024,VALID,59,VALID,1.78789,
2011-10-20, 01:11:04,VALID,1002.05,VALID,0,VALID,82.0639,VALID,0.0815089,VALID,26.6984,VALID,11,VALID,1.09766,
2011-10-20, 01:12:04,VALID,1002.08,VALID,0,VALID,82.0715,VALID,0.0815089,VALID,26.7219,VALID,52,VALID,1.75547,
2011-10-20, 01:13:04,VALID,1002.04,VALID,0,VALID,81.9037,VALID,0.0815089,VALID,26.7179,VALID,73,VALID,0.661719,
2011-10-20, 01:14:04,VALID,1002,VALID,0,VALID,81.2628,VALID,0.0815089,VALID,26.7589,VALID,35,VALID,0.981641,
2011-10-20, 01:15:04,VALID,1002,VALID,0,VALID,81.4612,VALID,0.0815089,VALID,26.7783,VALID,41,VALID,1.61094,
2011-10-20, 01:16:04,VALID,1001.98,VALID,0,VALID,81.4917,VALID,0.0815089,VALID,26.7783,VALID,76,VALID,0.921484,
2011-10-20, 01:17:04,VALID,1001.98,VALID,0,VALID,81.5604,VALID,0.0815089,VALID,26.7783,VALID,30,VALID,0.897656,
2011-10-20, 01:18:04,VALID,1002.01,VALID,0,VALID,81.6443,VALID,0.0815089,VALID,26.7568,VALID,35,VALID,0.976953,
2011-10-20, 01:19:04,VALID,1002.04,VALID,0,VALID,81.3849,VALID,0,VALID,26.7998,VALID,72,VALID,0.896484,
2011-10-20, 01:20:04,VALID,1002.04,VALID,0,VALID,81.3696,VALID,0,VALID,26.7998,VALID,63,VALID,1.46172,
2011-10-20, 01:21:04,VALID,1002.09,VALID,0,VALID,81.2934,VALID,0,VALID,26.7998,VALID,75,VALID,1.42891,
2011-10-20, 01:22:04,VALID,1002.12,VALID,0,VALID,81.4536,VALID,0,VALID,26.8019,VALID,41,VALID,1.38945,
2011-10-20, 01:23:04,VALID,1002.09,VALID,0,VALID,81.3696,VALID,0,VALID,26.7804,VALID,84,VALID,1.23047,
2011-10-20, 01:24:04,VALID,1002.12,VALID,0,VALID,81.6595,VALID,0,VALID,26.7609,VALID,43,VALID,0.535937,
2011-10-20, 01:25:04,VALID,1002.08,VALID,0,VALID,81.2018,VALID,0,VALID,26.7998,VALID,48,VALID,1.19023,
2011-10-20, 01:26:04,VALID,1002.05,VALID,0,VALID,81.156,VALID,0,VALID,26.8368,VALID,13,VALID,0.786719,
2011-10-20, 01:27:04,VALID,1002.02,VALID,0,VALID,81.0263,VALID,0,VALID,26.8778,VALID,53,VALID,1.12656,
2011-10-20, 01:28:04,VALID,1002,VALID,0,VALID,80.7288,VALID,0,VALID,26.8973,VALID,63,VALID,1.35078,
2011-10-20, 01:29:04,VALID,1001.95,VALID,0,VALID,80.4389,VALID,0,VALID,26.9167,VALID,112,VALID,2.02031,
2011-10-20, 01:30:04,VALID,1001.92,VALID,0,VALID,80.4389,VALID,0,VALID,26.9362,VALID,54,VALID,1.64922,
2011-10-20, 01:31:04,VALID,1001.89,VALID,0,VALID,80.2558,VALID,0,VALID,26.9362,VALID,81,VALID,2.20469,
2011-10-20, 01:32:04,VALID,1001.88,VALID,0,VALID,80.6296,VALID,0,VALID,26.9147,VALID,11,VALID,0.988672,
2011-10-20, 01:33:04,VALID,1001.86,VALID,0,VALID,80.355,VALID,0,VALID,26.8952,VALID,43,VALID,1.21328,
2011-10-20, 01:34:04,VALID,1001.79,VALID,0,VALID,79.9888,VALID,0,VALID,26.9147,VALID,83,VALID,1.19336,
2011-10-20, 01:35:04,VALID,1001.78,VALID,0,VALID,80.1643,VALID,0,VALID,26.9578,VALID,100,VALID,2.01602,
2011-10-20, 01:36:04,VALID,1001.77,VALID,0,VALID,80.1643,VALID,0,VALID,26.9147,VALID,108,VALID,1.12188,
2011-10-20, 01:37:04,VALID,1001.74,VALID,0,VALID,80.1109,VALID,0,VALID,26.9578,VALID,80,VALID,1.84805,
2011-10-20, 01:38:04,VALID,1001.71,VALID,0,VALID,80.21,VALID,0,VALID,26.9578,VALID,48,VALID,0.776172,
2011-10-20, 01:39:04,VALID,1001.7,VALID,0,VALID,80.294,VALID,0,VALID,26.9167,VALID,48,VALID,1.20078,
2011-10-20, 01:40:04,VALID,1001.65,VALID,0,VALID,80.2329,VALID,0,VALID,26.8778,VALID,36,VALID,1.54727,
2011-10-20, 01:41:04,VALID,1001.62,VALID,0,VALID,80.149,VALID,0,VALID,26.8757,VALID,92,VALID,1.2707,
2011-10-20, 01:42:04,VALID,1001.62,VALID,0,VALID,80.1414,VALID,0,VALID,26.9167,VALID,79,VALID,2.23867,
2011-10-20, 01:43:04,VALID,1001.61,VALID,0,VALID,80.0041,VALID,0,VALID,26.9557,VALID,32,VALID,1.29609,
2011-10-20, 01:44:04,VALID,1001.62,VALID,0,VALID,80.0804,VALID,0,VALID,26.9362,VALID,74,VALID,1.20039,
2011-10-20, 01:45:04,VALID,1001.61,VALID,0,VALID,80.1872,VALID,0,VALID,26.9167,VALID,86,VALID,1.39375,
2011-10-20, 01:46:04,VALID,1001.62,VALID,0,VALID,80.21,VALID,0,VALID,26.8778,VALID,42,VALID,1.03047,
2011-10-20, 01:47:04,VALID,1001.63,VALID,0,VALID,80.2329,VALID,0,VALID,26.8778,VALID,90,VALID,0.942578,
2011-10-20, 01:48:04,VALID,1001.63,VALID,0,VALID,80.1414,VALID,0,VALID,26.8973,VALID,32,VALID,1.59141,
2011-10-20, 01:49:04,VALID,1001.56,VALID,0,VALID,79.9202,VALID,0,VALID,26.8778,VALID,66,VALID,1.79375,
2011-10-20, 01:50:04,VALID,1001.57,VALID,0,VALID,79.8286,VALID,0,VALID,26.9557,VALID,81,VALID,1.26797,
2011-10-20, 01:51:04,VALID,1001.48,VALID,0,VALID,79.7981,VALID,0,VALID,26.9557,VALID,44,VALID,2.65586,
2011-10-20, 01:52:04,VALID,1001.57,VALID,0,VALID,79.7371,VALID,0,VALID,26.9732,VALID,36,VALID,1.40703,
2011-10-20, 01:53:04,VALID,1001.57,VALID,0,VALID,79.943,VALID,0,VALID,26.9557,VALID,73,VALID,0.991797,
2011-10-20, 01:54:04,VALID,1001.58,VALID,0,VALID,80.1261,VALID,0,VALID,26.8778,VALID,88,VALID,0.980078,
2011-10-20, 01:55:04,VALID,1001.56,VALID,0,VALID,80.2482,VALID,0,VALID,26.8388,VALID,89,VALID,0.896484,
2011-10-20, 01:56:04,VALID,1001.57,VALID,0,VALID,80.3245,VALID,0,VALID,26.8388,VALID,28,VALID,1.12227,
2011-10-20, 01:57:04,VALID,1001.55,VALID,0,VALID,80.4847,VALID,0,VALID,26.7998,VALID,78,VALID,1.31328,
2011-10-20, 01:58:04,VALID,1001.55,VALID,0,VALID,80.6144,VALID,0,VALID,26.8214,VALID,23,VALID,0.428125,
2011-10-20, 01:59:04,VALID,1001.55,VALID,0,VALID,80.7517,VALID,0,VALID,26.7414,VALID,55,VALID,0.844922,
2011-10-20, 02:00:04,VALID,1001.57,VALID,0,VALID,80.8738,VALID,0,VALID,26.7219,VALID,18,VALID,1.09258,
2011-10-20, 02:01:04,VALID,1001.59,VALID,0,VALID,80.9272,VALID,0,VALID,26.7219,VALID,33,VALID,0.986328,
2011-10-20, 02:02:04,VALID,1001.6,VALID,0,VALID,80.889,VALID,0,VALID,26.7219,VALID,94,VALID,1.55977,
2011-10-20, 02:03:04,VALID,1001.58,VALID,0,VALID,80.683,VALID,0,VALID,26.7824,VALID,65,VALID,2.00938,
2011-10-20, 02:04:04,VALID,1001.57,VALID,0,VALID,80.4999,VALID,0,VALID,26.7978,VALID,79,VALID,1.74648,
2011-10-20, 02:05:04,VALID,1001.58,VALID,0,VALID,80.5228,VALID,0,VALID,26.8193,VALID,75,VALID,1.83086,
2011-10-20, 02:06:04,VALID,1001.54,VALID,0,VALID,80.7288,VALID,0.0815089,VALID,26.7998,VALID,23,VALID,0.849219,
2011-10-20, 02:07:04,VALID,1001.57,VALID,0,VALID,80.889,VALID,0,VALID,26.7804,VALID,55,VALID,0.78125,
2011-10-20, 02:08:04,VALID,1001.6,VALID,0,VALID,81.0721,VALID,0,VALID,26.7414,VALID,89,VALID,0.486719,
2011-10-20, 02:09:04,VALID,1001.61,VALID,0,VALID,81.2857,VALID,0,VALID,26.7004,VALID,46,VALID,1.15547,
2011-10-20, 02:10:04,VALID,1001.57,VALID,0,VALID,81.0569,VALID,0,VALID,26.7219,VALID,92,VALID,1.78281,
2011-10-20, 02:11:04,VALID,1001.55,VALID,0,VALID,81.2018,VALID,0,VALID,26.7414,VALID,88,VALID,1.03633,
2011-10-20, 02:12:04,VALID,1001.57,VALID,0,VALID,81.3239,VALID,0,VALID,26.7199,VALID,37,VALID,0.617578,
2011-10-20, 02:13:04,VALID,1001.58,VALID,0,VALID,81.2552,VALID,0,VALID,26.6809,VALID,31,VALID,0.822266,
2011-10-20, 02:14:04,VALID,1001.6,VALID,0,VALID,81.2399,VALID,0,VALID,26.7024,VALID,58,VALID,1.08633,
2011-10-20, 02:15:04,VALID,1001.63,VALID,0,VALID,81.1484,VALID,0,VALID,26.7219,VALID,65,VALID,0.788281,
2011-10-20, 02:16:04,VALID,1001.65,VALID,0,VALID,81.3544,VALID,0,VALID,26.7024,VALID,111,VALID,0.492578,
2011-10-20, 02:17:04,VALID,1001.68,VALID,0,VALID,81.5375,VALID,0.0815089,VALID,26.6614,VALID,86,VALID,1.57852,
2011-10-20, 02:18:04,VALID,1001.68,VALID,0,VALID,81.3086,VALID,0,VALID,26.7004,VALID,80,VALID,1.81016,
2011-10-20, 02:19:04,VALID,1001.71,VALID,0,VALID,81.4612,VALID,0,VALID,26.683,VALID,81,VALID,1.08242,
2011-10-20, 02:20:04,VALID,1001.73,VALID,0,VALID,81.3849,VALID,0,VALID,26.6635,VALID,87,VALID,1.20703,
2011-10-20, 02:21:04,VALID,1001.71,VALID,0,VALID,81.5756,VALID,0,VALID,26.6635,VALID,54,VALID,0.910937,
2011-10-20, 02:22:04,VALID,1001.69,VALID,0,VALID,81.5756,VALID,0,VALID,26.685,VALID,91,VALID,1.04453,
2011-10-20, 02:23:04,VALID,1001.64,VALID,0,VALID,81.4993,VALID,0,VALID,26.7024,VALID,31,VALID,0.949609,
2011-10-20, 02:24:04,VALID,1001.65,VALID,0,VALID,81.301,VALID,0,VALID,26.7239,VALID,91,VALID,0.963281,
2011-10-20, 02:25:04,VALID,1001.63,VALID,0,VALID,81.3773,VALID,0,VALID,26.7045,VALID,84,VALID,0.938281,
2011-10-20, 02:26:04,VALID,1001.6,VALID,0,VALID,81.5604,VALID,0,VALID,26.7239,VALID,89,VALID,1.04609,
2011-10-20, 02:27:04,VALID,1001.54,VALID,0,VALID,81.3315,VALID,0,VALID,26.683,VALID,93,VALID,2.44844,
2011-10-20, 02:28:04,VALID,1001.51,VALID,0,VALID,81.3925,VALID,0,VALID,26.7004,VALID,105,VALID,1.50625,
2011-10-20, 02:29:04,VALID,1001.53,VALID,0,VALID,81.507,VALID,0,VALID,26.683,VALID,70,VALID,0.723437,
2011-10-20, 02:30:04,VALID,1001.48,VALID,0,VALID,81.6443,VALID,0,VALID,26.6635,VALID,28,VALID,0.682031,
2011-10-20, 02:31:04,VALID,1001.48,VALID,0,VALID,81.4459,VALID,0,VALID,26.6635,VALID,88,VALID,2.01406,
2011-10-20, 02:32:04,VALID,1001.48,VALID,0,VALID,81.6214,VALID,0,VALID,26.683,VALID,54,VALID,0.68125,
2011-10-20, 02:33:04,VALID,1001.45,VALID,0,VALID,81.7053,VALID,0,VALID,26.644,VALID,72,VALID,1.65078,
2011-10-20, 02:34:04,VALID,1001.44,VALID,0,VALID,81.6519,VALID,0,VALID,26.6655,VALID,54,VALID,2.56914,
2011-10-20, 02:35:04,VALID,1001.4,VALID,0,VALID,81.3315,VALID,0,VALID,26.7024,VALID,89,VALID,1.84609,
2011-10-20, 02:36:04,VALID,1001.43,VALID,0,VALID,81.1408,VALID,0,VALID,26.7414,VALID,78,VALID,2.27813,
2011-10-20, 02:37:04,VALID,1001.39,VALID,0,VALID,81.0797,VALID,0,VALID,26.7414,VALID,132,VALID,0.559766,
2011-10-20, 02:38:04,VALID,1001.4,VALID,0,VALID,80.7822,VALID,0,VALID,26.7804,VALID,111,VALID,2.68789,
2011-10-20, 02:39:04,VALID,1001.42,VALID,0,VALID,80.7975,VALID,0,VALID,26.8388,VALID,24,VALID,0.982031,
2011-10-20, 02:40:04,VALID,1001.48,VALID,0,VALID,80.294,VALID,0,VALID,26.8973,VALID,123,VALID,3.52813,
2011-10-20, 02:41:04,VALID,1001.48,VALID,0,VALID,79.9354,VALID,0,VALID,26.9967,VALID,93,VALID,2.07383,
2011-10-20, 02:42:04,VALID,1001.52,VALID,0,VALID,80.0422,VALID,0,VALID,26.9752,VALID,57,VALID,0.914453,
2011-10-20, 02:43:04,VALID,1001.54,VALID,0,VALID,80.1719,VALID,0,VALID,26.9362,VALID,20,VALID,0.716797,
2011-10-20, 02:44:04,VALID,1001.53,VALID,0,VALID,80.3779,VALID,0,VALID,26.9362,VALID,105,VALID,1.81016,
2011-10-20, 02:45:04,VALID,1001.54,VALID,0,VALID,80.3245,VALID,0,VALID,26.9167,VALID,99,VALID,1.76719,
2011-10-20, 02:46:04,VALID,1001.54,VALID,0,VALID,80.4694,VALID,0,VALID,26.9167,VALID,114,VALID,1.2707,
2011-10-20, 02:47:04,VALID,1001.52,VALID,0,VALID,80.4999,VALID,0,VALID,26.9188,VALID,89,VALID,1.47734,
2011-10-20, 02:48:04,VALID,1001.54,VALID,0,VALID,80.7898,VALID,0,VALID,26.8993,VALID,101,VALID,0.737891,
2011-10-20, 02:49:04,VALID,1001.59,VALID,0,VALID,80.8509,VALID,0,VALID,26.8368,VALID,78,VALID,1.57969,
2011-10-20, 02:50:04,VALID,1001.54,VALID,0,VALID,81.0492,VALID,0.0815089,VALID,26.8193,VALID,111,VALID,1.17383,
2011-10-20, 02:51:04,VALID,1001.58,VALID,0,VALID,81.2171,VALID,0,VALID,26.7978,VALID,81,VALID,1.52852,
2011-10-20, 02:52:04,VALID,1001.56,VALID,0,VALID,81.2094,VALID,0.0815089,VALID,26.8173,VALID,61,VALID,1.26641,
2011-10-20, 02:53:04,VALID,1001.59,VALID,0,VALID,81.0187,VALID,0.0815089,VALID,26.8368,VALID,125,VALID,1.36328,
2011-10-20, 02:54:04,VALID,1001.56,VALID,0,VALID,80.5915,VALID,0,VALID,26.8973,VALID,70,VALID,2.53203,
2011-10-20, 02:55:04,VALID,1001.59,VALID,0,VALID,80.3245,VALID,0,VALID,26.9732,VALID,85,VALID,2.05859,
2011-10-20, 02:56:04,VALID,1001.61,VALID,0,VALID,80.5076,VALID,0,VALID,26.9752,VALID,105,VALID,0.972656,
2011-10-20, 02:57:04,VALID,1001.62,VALID,0,VALID,80.5228,VALID,0.0815089,VALID,26.9362,VALID,63,VALID,0.583594,
2011-10-20, 02:58:04,VALID,1001.63,VALID,0,VALID,80.2177,VALID,0.0815089,VALID,26.8952,VALID,65,VALID,1.225,
2011-10-20, 02:59:04,VALID,1001.6,VALID,0,VALID,80.4237,VALID,0,VALID,26.9362,VALID,100,VALID,1.06094,
2011-10-20, 03:00:04,VALID,1001.56,VALID,0,VALID,80.4313,VALID,0.0815089,VALID,26.9167,VALID,53,VALID,0.835156,
2011-10-20, 03:01:04,VALID,1001.55,VALID,0,VALID,80.561,VALID,0.0815089,VALID,26.8757,VALID,70,VALID,1.11563,
2011-10-20, 03:02:04,VALID,1001.57,VALID,0,VALID,80.4923,VALID,0,VALID,26.8973,VALID,80,VALID,1.04492,
2011-10-20, 03:03:04,VALID,1001.58,VALID,0,VALID,80.5533,VALID,0,VALID,26.8973,VALID,65,VALID,0.764844,
2011-10-20, 03:04:04,VALID,1001.54,VALID,0,VALID,80.4237,VALID,0,VALID,26.8778,VALID,112,VALID,1.45625,
2011-10-20, 03:05:04,VALID,1001.6,VALID,0,VALID,80.7136,VALID,0,VALID,26.8583,VALID,66,VALID,1.30703,
2011-10-20, 03:06:04,VALID,1001.58,VALID,0,VALID,80.3931,VALID,0,VALID,26.8973,VALID,89,VALID,1.32891,
2011-10-20, 03:07:04,VALID,1001.62,VALID,0,VALID,80.5991,VALID,0,VALID,26.8778,VALID,31,VALID,1.0625,
2011-10-20, 03:08:04,VALID,1001.61,VALID,0,VALID,80.683,VALID,0,VALID,26.8583,VALID,33,VALID,2.38984,
2011-10-20, 03:09:04,VALID,1001.62,VALID,0,VALID,80.7746,VALID,0,VALID,26.8778,VALID,105,VALID,2.05742,
2011-10-20, 03:10:04,VALID,1001.58,VALID,0,VALID,80.4847,VALID,0,VALID,26.8973,VALID,89,VALID,0.986719,
2011-10-20, 03:11:04,VALID,1001.63,VALID,0,VALID,80.6068,VALID,0.0815089,VALID,26.9167,VALID,90,VALID,1.97227,
2011-10-20, 03:12:04,VALID,1001.6,VALID,0,VALID,80.2482,VALID,0,VALID,26.9147,VALID,98,VALID,2.26094,
2011-10-20, 03:13:04,VALID,1001.62,VALID,0,VALID,80.1643,VALID,0,VALID,27.0142,VALID,79,VALID,1.61445,
2011-10-20, 03:14:04,VALID,1001.59,VALID,0,VALID,79.9583,VALID,0,VALID,27.0336,VALID,93,VALID,1.56562,
2011-10-20, 03:15:04,VALID,1001.58,VALID,0,VALID,80.149,VALID,0,VALID,26.9947,VALID,55,VALID,0.934375,
2011-10-20, 03:16:04,VALID,1001.58,VALID,0,VALID,80.088,VALID,0,VALID,26.9947,VALID,62,VALID,1.50391,
2011-10-20, 03:17:04,VALID,1001.57,VALID,0,VALID,80.2482,VALID,0,VALID,26.9752,VALID,75,VALID,0.977344,
2011-10-20, 03:18:04,VALID,1001.49,VALID,0,VALID,80.2711,VALID,0,VALID,26.9362,VALID,63,VALID,0.868359,
2011-10-20, 03:19:04,VALID,1001.51,VALID,0,VALID,80.6068,VALID,0,VALID,26.9167,VALID,74,VALID,0.661328,
2011-10-20, 03:20:04,VALID,1001.46,VALID,0,VALID,80.2177,VALID,0,VALID,26.8952,VALID,29,VALID,1.96641,
2011-10-20, 03:21:04,VALID,1001.44,VALID,0,VALID,80.2711,VALID,0.0815089,VALID,26.9362,VALID,106,VALID,1.46797,
2011-10-20, 03:22:04,VALID,1001.41,VALID,0,VALID,80.4084,VALID,0,VALID,26.8973,VALID,34,VALID,1.49063,
2011-10-20, 03:23:04,VALID,1001.41,VALID,0,VALID,80.561,VALID,0,VALID,26.8778,VALID,80,VALID,0.470703,
2011-10-20, 03:24:04,VALID,1001.4,VALID,0,VALID,80.7975,VALID,0,VALID,26.8388,VALID,37,VALID,1.39727,
2011-10-20, 03:25:04,VALID,1001.35,VALID,0,VALID,80.767,VALID,0,VALID,26.8173,VALID,35,VALID,1.36172,
2011-10-20, 03:26:04,VALID,1001.35,VALID,0,VALID,80.5381,VALID,0,VALID,26.8388,VALID,98,VALID,0.380078,
2011-10-20, 03:27:04,VALID,1001.33,VALID,0,VALID,80.4084,VALID,0,VALID,26.8603,VALID,86,VALID,1.7332,
2011-10-20, 03:28:04,VALID,1001.37,VALID,0,VALID,80.5915,VALID,0,VALID,26.7978,VALID,32,VALID,1.00547,
2011-10-20, 03:29:04,VALID,1001.34,VALID,0,VALID,80.5991,VALID,0,VALID,26.8388,VALID,77,VALID,1.56484,
2011-10-20, 03:30:04,VALID,1001.33,VALID,0,VALID,80.3855,VALID,0,VALID,26.8193,VALID,97,VALID,1.54414,
2011-10-20, 03:31:04,VALID,1001.37,VALID,0,VALID,80.3474,VALID,0,VALID,26.8778,VALID,71,VALID,1.95195,
2011-10-20, 03:32:04,VALID,1001.38,VALID,0,VALID,80.4618,VALID,0,VALID,26.8368,VALID,28,VALID,0.995703,
2011-10-20, 03:33:04,VALID,1001.45,VALID,0,VALID,80.8432,VALID,0,VALID,26.8193,VALID,27,VALID,1.63672,
2011-10-20, 03:34:04,VALID,1001.46,VALID,0,VALID,80.6907,VALID,0,VALID,26.7998,VALID,93,VALID,1.48867,
2011-10-20, 03:35:04,VALID,1001.43,VALID,0,VALID,80.828,VALID,0,VALID,26.8388,VALID,56,VALID,0.844141,
2011-10-20, 03:36:04,VALID,1001.45,VALID,0,VALID,80.8127,VALID,0,VALID,26.8173,VALID,39,VALID,1.03164,
2011-10-20, 03:37:04,VALID,1001.42,VALID,0,VALID,80.767,VALID,0,VALID,26.8583,VALID,72,VALID,1.00273,
2011-10-20, 03:38:04,VALID,1001.4,VALID,0,VALID,80.8966,VALID,0.0815089,VALID,26.8388,VALID,64,VALID,0.69375,
2011-10-20, 03:39:04,VALID,1001.4,VALID,0,VALID,81.0569,VALID,0,VALID,26.7783,VALID,101,VALID,0.475,
2011-10-20, 03:40:04,VALID,1001.39,VALID,0,VALID,81.0187,VALID,0,VALID,26.7804,VALID,36,VALID,1.06445,
2011-10-20, 03:41:04,VALID,1001.43,VALID,0,VALID,81.0034,VALID,0,VALID,26.7998,VALID,63,VALID,2.25781,
2011-10-20, 03:42:04,VALID,1001.4,VALID,0,VALID,80.9501,VALID,0,VALID,26.8193,VALID,108,VALID,1.53984,
2011-10-20, 03:43:04,VALID,1001.43,VALID,0,VALID,81.156,VALID,0.0815089,VALID,26.7978,VALID,10,VALID,0.852734,
2011-10-20, 03:44:04,VALID,1001.46,VALID,0,VALID,81.0187,VALID,0.0815089,VALID,26.7978,VALID,77,VALID,1.12617,
2011-10-20, 03:45:04,VALID,1001.48,VALID,0,VALID,80.9653,VALID,0,VALID,26.8193,VALID,1,VALID,0.855469,